Location: Newark
(11.2914°S, 14.4718°E)
Time: 19:11:04
(UTC+00:00)

Tiros 1 despin weight - Pass Details

Date: 26 September 2019
Orbit: 593 x 643 km, 48.2° (Epoch: 20 October)

Event Time Altitude Azimuth Distance (km) Brightness Sun altitude
Rises 03:39:40 0° 188° (S) 2,945 ? -17.9°
Reaches altitude 10° 03:44:34 10° 144° (SE) 2,037 ? -16.7°
Maximum altitude 03:45:04 10° 137° (SE) 2,027 ? -16.6°
Drops below altitude 10° 03:45:33 10° 131° (SE) 2,037 ? -16.5°
Sets 03:50:25 0° 87° (E) 2,939 ? -15.3°
